Theta_e
305 305 305 305 305 306 306 307 309 311 311 311 311 310 309 309 308 308 309 309 309 309 309 309 309 309 310 309 310 310 310 313 315 313 312 312 311 312 314 321 326 323 319 317 319 319 315 318 320 322 336 346 347 350 352 351 352 351 355 357 356 360 360 361 364 358 358 359 357 357 359 357 356 357 354 352 353 352 352 351 350 350 349 349 348 346 345 347
305 305 305 305 305 306 306 306 309 311 311 311 311 311 310 310 309 308 308 309 309 309 309 310 309 309 309 309 310 310 313 321 322 319 318 315 312 312 314 321 325 324 321 318 318 318 316 317 322 331 341 345 344 346 348 349 350 350 354 358 358 363 361 356 359 357 357 359 356 356 358 357 356 356 353 354 355 353 352 351 350 350 349 349 347 345 347 349
305 305 305 305 305 306 306 306 308 310 311 311 312 311 311 310 309 309 308 309 309 309 309 309 309 309 309 310 310 310 318 328 329 323 321 318 314 313 314 320 324 323 321 319 319 317 316 317 324 338 343 341 341 342 342 345 348 348 353 359 359 358 356 352 353 354 355 356 356 355 357 357 356 355 354 355 356 354 352 351 350 350 350 348 346 347 349 349
305 305 305 305 305 306 306 306 308 310 311 311 312 312 312 311 310 309 309 308 309 309 310 309 308 308 309 310 311 311 320 332 330 323 321 320 318 316 315 318 321 323 320 318 319 317 316 318 326 339 341 338 338 340 341 342 346 347 349 356 356 352 353 352 350 352 353 354 356 355 357 358 355 354 355 355 357 356 352 350 350 349 350 348 348 349 349 349
305 305 305 305 306 306 306 306 307 309 311 311 312 312 312 311 310 310 310 309 308 309 310 309 308 308 309 310 311 312 320 330 328 323 321 321 320 318 317 317 319 321 320 317 317 318 320 323 329 337 338 336 338 340 342 342 344 346 347 349 349 348 352 352 350 352 353 354 356 355 357 357 354 353 355 354 356 356 352 350 350 349 349 348 349 350 349 349
305 305 305 306 306 306 306 306 307 309 310 311 311 312 312 312 311 310 310 310 308 309 309 309 308 308 309 311 312 314 320 327 326 322 320 320 320 319 318 318 319 319 320 318 317 322 327 329 332 336 336 336 338 341 343 343 344 346 345 343 344 345 349 351 352 352 352 355 356 354 355 356 354 355 354 353 354 354 352 351 350 349 348 348 349 349 348 349
305 305 306 306 306 306 306 306 307 308 310 311 311 311 312 313 312 311 311 310 309 309 309 308 308 308 310 312 313 316 321 324 323 320 319 320 320 319 317 317 318 318 319 318 318 324 330 330 331 334 335 336 339 340 342 343 343 345 345 343 342 343 344 348 352 351 351 354 355 353 354 355 355 356 354 354 353 353 351 351 350 349 348 348 350 349 348 348
305 305 306 306 306 306 306 307 307 308 309 310 310 311 312 313 312 312 311 311 309 309 309 308 308 308 311 313 314 318 322 323 321 320 320 320 321 320 318 316 316 317 319 318 318 326 332 330 330 332 332 335 338 338 340 342 342 342 343 342 341 342 342 345 351 351 351 353 354 353 354 354 355 355 354 353 353 354 352 351 350 349 349 349 350 349 348 348
305 305 305 306 306 306 306 307 307 307 308 309 310 310 311 312 313 312 312 311 309 309 308 308 308 309 312 313 315 321 323 321 321 321 320 320 320 320 319 317 315 315 318 319 317 325 333 332 332 332 331 332 334 335 336 340 343 341 340 340 340 340 340 344 352 352 352 353 353 353 353 353 353 354 354 354 354 354 353 352 349 348 349 349 350 349 348 348
305 305 306 306 306 306 306 306 307 307 308 309 310 311 311 312 313 313 312 311 310 309 308 308 308 310 314 313 316 322 322 319 320 321 319 319 319 320 320 318 316 314 316 319 318 324 333 335 334 333 331 331 332 333 334 338 341 338 336 335 335 335 336 345 353 353 353 353 353 353 353 353 352 354 356 355 354 353 352 351 348 347 349 350 350 349 347 347
306 306 306 306 306 306 306 307 307 307 308 309 310 311 311 312 313 313 312 311 309 309 308 308 309 312 315 315 316 320 321 319 318 319 318 318 319 320 321 318 316 315 316 318 317 324 334 335 333 331 330 331 331 332 332 334 335 333 332 330 330 328 331 345 353 352 353 353 352 352 353 353 352 354 356 354 353 353 351 350 348 348 348 349 349 348 346 347
306 305 306 305 306 306 307 307 307 307 308 310 311 311 311 312 313 313 312 311 310 309 308 308 310 313 315 317 318 319 321 319 318 318 318 318 318 320 322 320 317 316 316 317 317 323 332 334 331 330 330 330 329 330 332 333 332 331 331 329 331 327 329 345 353 351 353 353 352 352 353 355 355 354 354 353 353 352 351 349 348 348 348 348 348 346 345 346
306 306 306 305 305 306 307 307 307 308 309 311 312 312 312 313 313 313 312 312 311 308 308 309 310 314 316 318 319 320 321 320 319 318 318 319 319 320 322 322 321 320 318 318 317 320 328 332 330 329 329 328 327 330 332 333 331 332 331 328 330 329 330 343 352 352 351 352 351 350 355 355 355 352 352 353 353 351 350 350 348 348 348 348 348 346 344 345
306 305 305 305 305 306 307 307 307 309 310 312 312 312 314 314 314 313 313 314 311 309 310 310 311 315 319 320 319 320 320 319 318 318 317 319 319 319 321 323 324 324 322 319 318 318 322 326 326 326 327 326 327 329 331 331 330 331 330 330 330 326 328 339 349 353 351 352 351 349 356 358 354 351 351 353 353 351 350 349 348 348 348 347 348 346 344 344
305 305 305 305 305 306 307 307 308 310 312 313 313 314 315 315 315 313 314 315 311 310 312 312 315 318 320 321 320 321 320 319 319 317 317 317 317 318 319 322 324 325 325 321 318 317 318 321 322 323 325 328 330 330 333 333 333 333 328 332 332 325 329 334 343 353 351 351 351 348 354 357 353 350 352 352 352 352 350 350 349 348 348 347 347 347 344 343
305 305 305 305 305 306 307 307 309 311 313 314 314 315 315 316 316 315 317 316 312 312 313 314 317 320 322 324 323 324 322 321 320 317 318 317 316 317 317 321 323 325 325 321 319 319 320 321 323 325 326 332 335 333 335 335 336 338 330 329 330 325 328 328 337 350 351 351 352 349 353 358 354 350 351 353 352 352 351 350 349 348 348 347 347 348 345 343
306 306 306 306 306 306 307 308 309 312 314 315 316 315 315 316 316 316 318 317 315 315 316 316 317 320 323 324 322 321 320 320 319 316 317 316 315 316 316 318 321 324 325 322 321 321 323 324 328 332 333 333 336 334 334 332 333 338 333 328 329 326 325 324 330 342 347 351 353 351 353 356 355 350 351 353 351 351 351 350 350 349 348 347 347 348 346 344
308 308 308 308 308 308 308 309 309 313 316 316 316 315 315 315 316 317 317 317 316 316 319 320 320 322 322 321 320 318 316 317 317 316 316 316 316 316 316 318 320 324 325 323 323 324 326 328 331 338 339 333 333 333 334 334 333 333 330 327 328 327 325 325 326 332 346 354 353 353 352 352 352 350 350 352 351 351 351 350 350 349 348 347 348 348 347 345
310 310 310 310 310 310 310 310 310 313 316 316 316 315 314 314 316 317 316 315 315 317 320 321 322 325 323 320 320 317 316 315 315 315 316 316 316 316 317 318 320 323 325 326 327 326 329 333 334 338 340 337 334 333 334 336 333 329 328 327 327 326 325 327 325 327 342 350 352 354 352 351 353 350 350 351 350 351 350 350 351 350 349 348 348 349 348 346
312 312 312 312 312 311 311 311 311 313 316 317 316 316 315 314 315 316 315 315 315 316 318 317 318 320 320 320 318 315 315 315 315 315 315 317 316 316 317 319 321 324 326 329 332 330 331 337 339 340 340 339 336 332 332 333 331 330 330 328 328 327 326 328 327 326 330 336 342 350 351 351 352 350 350 350 350 350 350 350 350 350 350 348 348 349 349 347
314 314 313 313 313 312 312 312 312 313 316 317 316 316 315 314 315 316 315 315 315 314 314 315 315 315 318 319 316 315 315 314 314 315 315 316 317 317 318 319 323 326 327 328 331 332 333 338 341 340 338 337 335 332 331 331 331 331 330 329 328 327 327 328 328 327 325 325 329 339 346 349 351 350 350 351 349 349 349 349 349 349 350 349 349 349 349 349
315 315 315 314 314 313 313 313 312 313 316 316 315 315 315 314 315 315 314 315 315 314 313 314 314 315 319 319 316 315 315 314 314 315 316 316 317 317 317 320 325 327 327 328 331 334 335 337 338 336 335 333 332 332 331 331 331 331 330 329 327 327 328 328 327 327 326 325 326 333 341 345 350 350 350 351 350 349 348 348 349 349 349 349 348 349 350 349
315 315 315 315 315 314 313 313 313 313 316 316 315 315 315 315 315 314 314 314 314 313 313 313 313 315 318 317 316 315 314 314 314 315 317 317 317 316 316 320 324 326 328 331 334 334 335 337 335 332 330 331 332 332 332 331 330 331 330 328 327 327 326 325 327 326 324 325 324 329 338 345 351 352 351 351 350 350 349 348 348 348 348 348 348 348 349 349
314 315 315 315 315 314 314 313 313 315 315 316 316 315 315 315 315 314 314 314 314 314 315 315 314 315 317 316 315 315 314 314 314 315 317 317 317 316 317 318 321 323 326 332 334 333 335 335 331 329 329 330 332 332 331 331 331 331 330 328 327 328 326 325 326 326 325 325 323 329 339 347 353 353 352 351 350 350 349 348 348 348 347 347 347 348 348 349
314 314 315 315 315 315 314 313 315 316 316 316 316 316 316 315 315 315 315 316 316 316 316 315 315 316 316 315 314 314 314 314 315 316 317 318 317 318 317 317 319 321 324 328 332 333 334 331 327 328 330 329 329 330 330 329 330 329 329 329 328 328 328 327 326 323 322 322 326 336 342 349 355 354 353 352 351 351 349 349 348 347 348 347 347 347 347 348
313 314 314 315 315 315 315 314 315 315 316 317 316 316 316 315 316 314 316 320 320 318 317 314 315 316 315 315 314 314 314 314 315 316 317 318 318 318 318 317 319 322 324 326 328 331 331 328 327 328 328 328 328 329 328 327 327 326 329 330 328 327 327 325 324 321 321 324 327 335 344 347 350 350 353 353 351 352 351 350 350 348 348 348 347 347 346 346
314 314 314 315 315 315 315 314 314 315 317 317 317 317 314 315 315 313 319 326 322 317 316 314 314 314 314 314 314 314 315 315 315 316 317 317 317 316 317 318 318 319 321 321 322 325 325 323 326 328 326 327 327 327 327 327 325 325 328 328 326 326 325 324 323 320 323 325 324 328 340 346 346 348 352 353 352 354 353 352 350 349 349 349 348 347 347 346
314 315 315 315 314 315 315 314 315 316 316 316 317 316 314 315 315 314 321 326 321 315 314 313 313 313 313 313 313 314 315 315 315 316 317 317 316 316 317 318 319 318 318 318 319 320 320 319 324 327 325 325 326 327 327 326 325 327 327 326 326 324 324 325 323 322 324 321 322 328 329 332 340 349 351 352 354 353 354 354 351 351 350 349 349 347 347 347
315 315 315 314 314 314 314 314 316 316 316 316 316 315 314 315 315 318 323 322 318 314 314 314 313 313 313 313 313 313 314 314 314 315 317 317 317 317 317 317 317 318 316 316 319 319 317 318 320 322 321 323 326 327 326 325 326 327 325 325 326 324 325 327 324 322 321 318 321 326 321 318 329 345 351 350 352 353 353 353 351 351 350 349 350 349 348 347
315 315 315 314 314 314 314 315 316 316 316 316 314 315 315 316 320 325 323 318 315 313 313 314 313 313 313 313 314 313 313 313 314 315 316 316 317 316 317 316 315 317 318 317 318 318 316 316 318 318 319 321 323 323 322 324 325 324 325 325 325 325 326 332 337 328 318 321 326 326 321 317 321 336 349 349 350 351 352 353 351 350 351 350 350 350 349 348
315 315 315 315 315 314 315 315 315 315 315 315 314 315 315 318 326 328 320 315 315 314 313 314 314 314 313 314 314 313 314 314 313 315 316 316 316 314 316 317 316 320 324 321 318 318 318 318 317 317 318 317 319 322 319 320 321 322 326 323 322 329 327 328 337 327 317 324 333 329 323 316 318 329 344 348 350 350 350 352 352 350 350 350 350 350 350 349
316 316 316 316 315 315 315 314 315 315 315 315 315 315 319 322 323 322 319 316 314 313 313 315 315 314 314 314 314 313 314 313 312 315 315 315 315 314 314 315 315 319 322 319 317 319 320 318 317 316 317 315 317 320 317 318 321 319 324 322 320 326 324 323 329 325 321 326 328 327 322 317 323 333 340 346 348 348 349 349 350 350 350 351 351 350 350 350
317 318 318 317 317 316 315 315 315 315 315 316 315 316 325 327 319 317 317 315 313 313 313 314 314 314 314 314 313 314 314 313 314 315 315 315 315 314 314 312 313 316 318 317 316 319 320 318 316 316 317 315 315 317 315 317 320 317 322 323 321 323 321 322 328 324 323 325 323 325 322 318 324 330 336 346 348 346 347 347 349 350 350 350 351 351 350 350
318 319 318 317 317 316 315 315 315 315 316 316 317 319 323 321 318 318 317 313 313 314 313 313 313 314 315 314 313 314 314 313 314 314 315 315 315 315 314 312 312 314 318 319 317 318 319 318 317 315 315 315 315 315 314 315 316 316 321 324 325 327 324 324 327 323 322 324 322 321 320 321 321 323 332 337 337 343 346 347 348 349 350 350 350 351 351 351
318 318 318 317 317 315 315 315 315 316 316 316 319 320 318 316 316 317 315 314 315 314 313 313 313 315 315 314 313 313 313 314 313 313 313 313 313 314 313 312 312 312 316 319 317 316 317 317 316 315 314 314 315 315 315 316 317 318 322 323 322 324 324 324 327 327 325 323 322 321 322 328 326 325 332 328 325 336 341 345 349 347 349 350 349 350 350 351
319 319 318 317 316 315 315 316 316 316 316 319 323 320 316 314 315 315 314 315 314 313 315 315 313 314 314 314 314 313 313 314 313 314 314 312 313 312 312 312 312 311 314 317 316 314 316 318 316 315 316 315 314 314 315 316 318 321 321 320 318 318 319 322 325 328 325 319 323 325 321 327 328 324 332 335 332 335 337 341 346 347 349 348 348 350 350 351
320 320 318 317 316 317 316 316 317 316 316 321 326 322 318 314 312 314 315 313 313 312 315 316 313 313 313 313 313 312 314 314 313 315 314 313 314 312 311 313 312 312 313 315 315 313 314 318 316 314 317 316 313 315 316 314 316 319 319 318 319 320 322 324 324 325 324 320 326 326 318 326 331 327 333 340 338 338 338 338 339 342 347 348 348 349 349 350
320 320 318 317 317 316 316 316 316 316 317 323 326 321 317 314 311 312 312 311 312 313 314 315 313 312 313 313 312 312 314 314 314 316 315 314 314 311 311 312 312 312 311 313 316 315 313 316 317 314 314 315 314 315 316 315 314 317 317 317 321 323 324 325 322 321 322 322 325 325 322 329 335 332 336 340 338 340 341 339 338 338 341 347 348 348 349 351
319 319 317 316 317 316 316 316 315 316 321 326 326 321 315 313 312 312 312 311 312 312 313 313 313 313 312 313 312 312 313 313 313 316 316 314 313 312 310 311 312 311 311 312 315 316 315 315 316 315 314 314 316 317 316 315 315 316 315 314 318 322 321 321 322 321 322 324 325 325 326 333 338 333 334 340 340 339 339 339 339 338 338 343 348 349 348 349
318 319 318 316 317 316 315 316 315 319 326 325 322 319 314 313 312 312 312 312 311 312 312 312 313 314 312 311 312 312 312 313 313 314 314 312 312 312 310 311 312 311 311 311 311 315 319 317 315 317 316 315 316 316 315 315 315 314 314 312 313 317 318 321 323 320 320 325 328 327 327 333 339 329 328 338 339 336 336 336 338 339 339 339 344 349 349 348
318 320 318 315 317 317 316 317 315 319 326 323 317 315 314 313 313 312 312 313 312 312 311 312 313 312 311 311 312 312 312 312 312 312 312 311 312 313 311 311 312 312 313 314 312 314 318 318 317 318 316 314 316 315 314 315 314 312 312 312 312 313 315 321 326 321 319 322 323 323 325 333 337 323 322 336 337 334 335 334 335 339 340 341 343 346 348 348
317 318 316 315 317 317 316 318 317 317 321 319 314 315 315 314 312 312 312 312 312 312 312 312 312 311 311 312 312 313 312 312 312 312 311 311 312 312 311 312 313 312 314 316 313 312 316 317 317 318 316 313 313 314 312 313 313 311 311 311 311 312 312 316 320 319 319 321 321 325 329 336 336 321 321 335 336 333 335 334 334 336 337 340 344 345 347 348
318 317 315 315 316 316 316 319 320 319 318 315 313 313 313 313 312 311 312 312 312 312 312 311 311 312 312 312 313 313 313 313 313 312 312 313 313 312 311 313 313 313 314 314 312 313 317 316 314 317 319 315 314 315 312 311 311 311 311 311 311 312 311 312 314 318 321 321 320 325 332 337 331 321 324 335 335 333 334 333 334 333 334 337 340 344 347 346
317 316 315 315 315 316 317 318 318 320 318 314 313 314 313 312 311 311 311 312 312 312 312 311 311 312 312 312 313 313 313 315 314 314 314 314 314 313 312 313 313 314 313 313 313 311 313 315 317 321 322 319 317 318 315 312 311 311 311 311 311 311 312 313 315 320 326 323 318 321 330 333 324 321 331 334 332 333 333 333 333 332 333 334 336 340 344 346
317 317 315 314 315 315 316 315 316 319 318 315 314 314 313 313 312 312 311 312 312 311 312 312 311 311 311 312 312 312 313 315 315 315 315 315 314 313 312 313 314 314 313 314 314 312 313 317 321 321 320 319 318 316 314 313 312 311 311 311 311 311 312 314 315 319 325 323 317 318 326 326 318 321 335 334 330 332 333 332 332 331 332 332 333 335 337 340
318 319 318 317 316 314 314 314 314 317 320 319 316 314 313 314 313 312 312 312 312 311 312 312 311 312 313 312 313 313 313 313 314 315 315 315 314 313 312 313 314 315 315 313 312 315 319 319 321 322 320 320 320 318 317 315 312 311 311 311 311 312 311 313 316 318 319 318 318 322 325 321 314 322 337 335 330 331 332 331 331 331 331 331 331 332 333 335
318 319 318 319 318 315 315 314 313 315 317 317 317 314 312 313 313 313 313 312 312 312 312 311 311 313 314 313 314 314 314 314 314 314 314 315 315 313 312 312 313 314 315 311 310 319 323 317 316 321 319 317 319 317 315 313 311 310 312 311 311 312 312 313 314 315 315 316 320 326 326 318 314 325 338 336 331 330 331 331 330 330 330 330 330 331 331 332
318 317 316 317 318 317 317 316 314 315 316 317 317 315 312 313 313 314 314 312 311 312 314 314 312 312 314 313 314 316 316 316 316 315 315 316 316 315 314 313 312 312 313 311 310 317 321 314 311 315 314 313 314 313 312 312 310 311 311 311 311 312 312 313 314 314 315 315 317 321 321 317 319 331 338 335 332 330 330 330 329 329 329 329 329 329 330 330
317 317 317 317 317 316 316 314 313 314 316 320 321 316 313 314 314 313 313 314 313 312 313 314 312 312 314 314 315 316 315 316 316 314 314 315 315 315 316 315 314 312 312 312 310 312 317 317 313 313 314 313 312 312 312 311 310 311 311 311 312 312 312 313 316 318 318 318 318 319 320 320 325 333 335 332 330 329 328 328 328 327 328 328 328 328 328 329
317 318 317 317 317 315 314 313 313 314 316 319 319 316 314 315 315 313 312 314 315 313 313 314 313 313 313 315 316 315 314 314 315 314 313 314 315 315 315 315 314 312 312 314 312 312 313 315 317 317 315 314 314 312 311 311 311 311 311 312 311 311 313 315 318 323 326 327 326 322 322 326 328 331 332 329 328 328 326 327 327 326 326 327 327 327 327 328
317 317 317 318 318 315 314 313 313 315 317 317 318 316 316 315 314 313 313 312 313 314 313 314 314 314 314 316 316 315 313 313 314 313 313 313 314 314 314 315 313 313 314 315 313 315 315 315 319 320 316 314 314 312 312 311 311 312 312 312 311 311 312 313 317 325 330 331 330 326 327 329 328 328 329 328 327 327 326 326 326 325 324 324 325 326 326 326
317 317 316 318 318 315 314 314 315 316 316 316 316 316 315 314 312 314 316 314 312 313 313 313 313 314 316 316 315 314 313 313 313 313 313 313 313 313 313 314 312 312 315 315 313 316 319 317 317 317 315 316 315 312 313 313 312 315 315 311 311 314 314 315 321 326 327 328 329 330 329 328 326 326 328 327 327 326 326 325 324 324 323 322 322 323 325 326
Wind_Speed
16 15 15 15 15 15 16 16 16 16 16 16 16 15 15 15 14 14 13 14 13 11 11 12 11 12 12 12 11 11 10 10 9 7 5 5 9 10 14 17 16 16 19 20 20 18 17 17 16 17 17 16 13 12 12 12 11 6 2 1 2 2 3 3 3 4 4 4 5 9 11 8 7 9 11 10 8 11 11 12 15 7 11 23 22 35 39 33
16 15 15 15 15 14 15 16 16 17 17 16 16 16 16 16 15 14 13 13 13 12 12 12 11 11 11 11 10 10 10 5 3 4 3 1 6 10 16 19 18 17 17 21 21 20 19 19 19 18 17 13 10 10 8 9 11 8 2 1 4 4 4 4 5 6 5 6 8 10 10 9 10 12 14 9 4 8 7 10 15 15 19 22 29 39 35 33
16 15 15 14 14 14 15 15 15 16 17 17 16 16 16 16 16 15 14 13 12 12 12 12 11 11 10 10 9 9 6 4 6 7 8 7 4 8 15 19 19 16 15 18 19 17 15 18 20 19 17 11 9 10 7 7 9 9 5 1 5 6 4 4 7 8 8 13 12 10 9 9 12 16 15 8 6 7 6 10 18 22 26 29 37 39 34 34
16 16 15 14 14 14 14 14 15 15 16 17 17 17 17 17 17 16 15 14 13 11 12 12 11 10 10 9 8 7 3 4 4 7 9 9 7 5 11 16 17 16 13 14 15 14 13 15 18 18 14 8 8 9 8 9 7 7 8 5 4 4 3 7 9 10 12 20 16 12 9 7 12 16 15 12 8 4 10 18 22 27 34 38 41 38 34 35
16 16 15 15 14 14 14 14 14 14 15 16 17 17 17 17 17 17 16 15 13 12 11 12 11 11 10 8 8 5 3 3 3 6 8 7 7 4 8 13 15 16 15 12 14 15 15 15 16 16 10 5 5 5 8 13 11 4 7 11 8 2 2 7 9 12 15 19 16 13 10 9 13 13 16 18 10 6 16 22 24 31 39 43 43 38 35 36
16 15 15 15 15 14 14 14 14 14 14 15 16 17 17 17 17 18 17 15 14 12 11 11 10 11 9 8 7 2 2 2 4 6 7 6 5 4 6 12 15 17 18 15 15 17 17 16 15 14 8 4 5 5 8 12 11 5 6 11 11 9 6 5 9 14 17 18 15 13 13 15 14 9 16 21 10 8 20 23 23 31 38 43 43 36 36 38
16 15 15 15 15 15 15 15 14 14 15 15 15 16 17 17 17 18 18 16 13 12 11 10 9 10 9 8 6 2 2 3 6 6 6 6 5 4 4 12 17 19 21 19 18 19 18 15 14 14 7 3 4 7 11 11 11 8 5 8 11 13 12 10 12 16 19 20 17 18 17 15 13 9 13 18 12 10 19 22 24 32 38 43 40 34 37 39
16 16 15 15 15 16 16 16 16 16 16 15 15 15 16 16 16 17 18 17 14 11 10 8 8 8 8 7 5 2 2 4 6 5 4 4 5 3 2 10 16 19 22 21 21 21 19 17 16 13 6 5 6 5 10 10 9 8 8 10 12 14 15 15 16 20 21 17 17 19 15 15 17 12 12 17 14 13 20 24 26 33 39 40 37 34 36 37
16 15 16 16 16 17 17 17 17 17 17 17 16 15 15 15 15 16 17 16 14 11 8 7 8 7 7 6 4 1 4 6 4 2 2 2 3 2 1 6 13 18 21 22 22 22 21 20 20 16 6 5 7 7 9 6 5 7 10 13 12 14 17 14 18 22 21 15 18 17 9 14 17 10 9 16 16 15 23 27 29 36 39 37 36 34 35 38
16 15 15 16 17 18 18 18 18 18 18 18 18 16 15 16 15 15 15 15 13 11 7 7 7 5 6 4 2 2 5 5 2 2 2 1 1 2 2 4 10 15 19 22 23 24 24 22 20 16 6 5 6 8 11 7 7 9 10 13 12 17 19 15 21 22 19 14 20 15 5 11 14 6 5 13 18 20 28 32 33 37 38 36 35 33 34 38
15 15 16 16 17 18 18 18 18 18 18 18 18 18 17 16 15 15 14 12 12 10 8 7 5 4 6 4 3 3 5 3 1 2 3 2 1 2 4 1 10 14 17 21 24 26 25 21 16 10 5 5 5 8 11 7 9 13 11 11 11 16 14 15 19 20 16 10 17 15 7 8 8 3 5 15 23 27 33 34 36 38 37 36 35 32 33 37
15 15 16 16 17 18 18 19 18 18 18 17 18 17 17 16 15 14 12 10 10 9 7 6 4 4 6 6 5 5 5 3 1 1 2 1 1 1 4 3 5 11 14 18 23 25 25 21 16 10 6 4 5 7 8 10 15 14 8 7 7 10 4 14 16 20 17 8 17 17 8 3 5 5 9 21 27 30 34 35 36 37 35 36 35 31 33 38
16 15 15 16 17 18 19 19 18 18 18 17 17 17 16 14 14 13 10 9 8 7 6 6 4 4 6 5 5 6 4 5 4 3 3 2 2 1 1 2 3 4 8 14 18 23 25 22 18 15 11 7 6 7 10 16 16 10 5 2 4 7 2 13 17 19 14 12 24 18 3 5 8 10 13 24 30 30 33 33 35 36 34 36 35 30 33 39
17 15 15 16 17 18 19 18 18 18 18 17 16 14 13 12 13 11 8 8 7 6 5 4 4 5 6 4 7 5 4 7 6 5 6 4 4 2 2 2 3 3 2 8 13 18 23 23 19 15 13 12 11 12 11 10 7 3 3 2 1 3 3 7 12 15 8 13 27 16 1 6 9 12 17 28 34 32 31 32 34 35 34 36 35 30 32 38
17 16 16 16 17 18 18 18 17 17 17 16 14 12 11 12 12 8 7 7 5 4 4 5 5 5 7 5 7 6 6 9 7 4 5 4 4 3 3 4 3 3 1 3 9 12 15 17 16 12 13 15 12 9 6 3 3 2 1 3 3 1 3 4 7 16 10 11 21 11 0 5 6 11 20 32 36 32 31 31 33 35 35 36 35 30 32 36
18 18 17 16 17 17 17 17 17 16 15 13 12 11 10 11 11 8 7 5 4 5 5 6 5 5 6 3 6 5 4 6 4 3 6 5 5 4 2 3 4 4 2 4 9 10 11 12 11 12 13 11 6 4 2 4 4 3 1 2 3 2 3 4 4 15 13 9 12 9 1 2 4 10 22 32 36 33 30 30 32 34 35 37 35 31 32 34
19 19 18 17 17 17 17 16 16 15 11 11 12 10 9 11 11 7 5 3 4 5 6 6 5 6 4 3 4 3 0 3 3 4 7 5 5 5 3 5 6 6 5 6 10 10 10 11 8 8 8 4 2 2 1 3 3 3 2 0 3 2 2 3 2 8 10 9 9 10 5 2 3 11 23 31 35 32 30 30 32 34 35 37 35 31 33 36
20 20 18 17 17 16 16 16 16 13 8 9 12 10 8 9 7 3 1 3 5 3 4 5 3 2 3 5 1 2 4 2 4 5 5 3 4 7 5 5 6 7 7 5 7 9 8 7 4 1 2 2 2 4 3 4 3 1 1 1 3 3 2 3 2 2 7 7 9 11 9 6 3 10 21 30 35 32 30 32 34 34 35 37 36 32 34 38
21 21 20 18 17 16 15 15 15 12 7 8 10 9 4 5 4 1 3 9 8 3 2 4 4 1 3 5 2 3 6 3 5 6 5 3 5 9 7 5 5 8 8 4 4 8 7 4 1 1 2 3 3 4 5 5 4 3 2 1 3 4 4 4 3 2 6 6 7 9 11 9 6 10 16 25 34 32 29 30 31 32 34 36 36 34 34 38
22 22 21 19 18 16 15 14 15 12 8 9 10 8 5 7 5 3 12 17 10 6 7 8 9 10 10 7 3 4 6 3 4 4 4 4 5 9 8 6 5 6 6 4 3 6 7 3 3 4 4 4 4 4 6 6 4 3 3 3 4 4 6 5 3 3 5 5 6 9 12 11 11 13 16 24 30 27 26 27 28 31 33 36 37 36 36 39
22 21 20 20 18 16 14 14 13 10 7 10 11 8 8 9 5 5 17 17 10 8 10 9 10 14 13 8 3 5 8 5 4 3 5 5 7 10 8 5 4 2 2 4 3 2 5 4 5 6 6 6 5 4 5 5 5 5 4 4 5 4 6 6 4 6 5 4 6 8 10 11 12 14 17 23 23 22 27 28 29 33 34 37 39 38 38 38
22 21 20 19 17 15 13 12 12 9 6 8 10 10 9 9 6 7 12 12 15 14 10 8 9 14 15 10 5 7 8 7 6 3 4 7 9 8 6 5 5 2 2 2 3 2 2 4 6 7 6 5 4 4 4 5 4 5 4 3 5 3 3 6 4 5 3 3 4 5 8 11 12 13 17 22 22 24 34 35 35 37 35 36 39 39 38 37
22 21 20 18 16 14 11 11 10 7 4 5 9 11 8 8 8 9 11 9 14 15 10 9 9 13 14 10 6 6 7 6 5 3 5 9 8 7 8 6 4 2 1 3 4 2 2 4 8 8 5 3 5 5 4 4 4 4 4 3 6 3 1 3 4 5 3 2 6 6 5 6 8 10 12 22 26 26 33 36 35 38 38 39 42 42 40 40
22 21 21 18 15 12 10 10 7 4 1 2 5 8 5 6 8 10 11 6 6 9 5 5 7 10 12 8 4 6 7 6 5 4 7 9 7 7 7 5 4 2 2 4 7 5 4 7 8 6 4 4 5 6 4 4 3 4 6 5 7 5 3 5 5 6 6 4 6 4 2 3 5 10 10 15 20 19 25 29 28 33 37 37 37 38 40 41
22 21 21 19 15 11 9 7 4 3 2 2 2 4 4 6 8 10 9 3 3 5 2 3 5 6 7 4 4 7 4 3 4 3 9 11 8 6 4 4 5 3 5 4 6 4 7 10 7 4 5 6 5 6 5 4 3 5 6 9 10 7 5 7 6 5 5 5 4 3 2 4 4 12 11 9 12 13 17 21 22 28 32 31 32 35 39 41
21 20 21 19 14 11 8 4 2 2 3 4 2 2 6 8 7 8 5 3 2 4 1 2 4 4 5 5 8 7 1 1 2 5 11 10 7 6 4 2 3 3 5 4 3 3 4 6 4 4 6 6 6 7 5 5 3 4 5 8 9 7 6 9 6 2 1 4 4 2 3 3 4 8 10 10 12 13 13 14 18 26 30 32 34 36 39 40
20 20 20 17 14 12 8 4 2 1 3 2 2 5 8 6 6 7 3 3 2 2 0 2 3 3 4 6 9 7 2 1 2 6 12 9 5 6 4 3 1 1 3 3 2 3 2 2 1 4 5 4 4 5 6 7 5 5 6 6 6 6 6 7 5 4 4 4 5 3 4 2 2 7 10 10 11 10 10 12 16 23 29 33 36 36 38 40
18 18 17 14 11 11 8 3 1 0 1 1 3 7 6 3 4 4 2 3 2 2 1 2 1 3 5 5 7 5 2 3 3 5 10 8 4 4 3 4 5 3 1 5 2 5 1 1 2 5 3 3 5 7 8 7 6 9 9 6 5 6 6 6 5 4 2 1 6 5 2 2 4 5 8 10 10 10 13 14 15 22 30 33 34 36 39 40
16 16 14 11 9 8 6 2 0 1 1 2 4 5 5 3 4 2 3 1 2 2 0 1 1 3 4 2 3 3 2 2 1 3 6 5 1 1 1 3 5 4 1 3 4 5 1 3 4 5 4 4 5 9 9 7 7 10 7 5 4 4 5 4 3 3 1 2 5 7 2 3 4 4 6 9 10 12 14 14 16 22 29 31 32 35 37 39
13 11 10 9 8 8 5 2 1 2 3 4 4 4 4 4 2 3 2 1 0 2 2 2 2 1 2 2 0 1 2 2 2 3 7 10 9 8 4 1 3 4 0 2 2 4 4 4 4 2 1 4 5 6 7 8 10 10 3 3 4 2 2 1 1 1 2 1 6 8 4 4 3 4 4 8 12 15 14 12 14 19 25 30 33 35 37 40
9 8 9 9 8 8 7 4 3 4 5 5 5 5 3 2 2 4 1 1 1 3 4 3 2 0 2 3 1 1 1 1 2 4 7 10 13 16 10 3 4 4 3 4 2 4 5 3 2 2 9 7 3 3 2 4 5 4 2 1 2 3 1 2 4 1 3 4 7 7 3 4 3 5 4 10 16 18 16 14 15 18 26 34 37 38 39 41
6 7 8 9 8 8 7 4 3 3 4 5 7 5 0 1 3 2 1 4 2 2 3 3 2 1 1 2 2 0 2 2 4 6 5 4 6 9 7 3 2 2 3 3 2 4 3 2 3 3 12 15 5 3 5 6 5 3 0 3 2 2 1 0 2 1 4 5 5 5 1 2 4 6 6 12 16 16 16 18 20 22 29 35 37 39 40 39
6 7 8 9 8 7 6 4 4 3 3 6 6 2 3 4 3 2 2 3 1 2 3 3 3 1 2 4 2 1 4 4 3 5 4 4 5 5 5 6 5 2 2 1 2 4 2 2 7 5 7 11 6 3 4 4 5 4 1 4 4 2 1 2 3 1 2 4 5 4 1 1 3 5 6 12 15 18 21 24 26 28 31 34 36 39 39 38
5 8 9 10 9 7 5 4 4 4 6 9 4 2 6 4 1 3 3 2 2 2 3 3 4 3 4 4 1 2 5 5 4 5 4 4 5 4 5 9 11 4 2 3 3 2 1 1 5 4 3 7 5 3 2 4 3 4 3 4 3 4 4 3 4 2 3 3 3 2 1 2 3 3 6 9 12 17 23 25 25 27 30 32 33 33 34 34
6 8 9 10 10 8 5 5 6 8 12 10 3 5 6 2 2 2 2 4 3 3 4 4 4 6 5 5 4 2 3 3 4 7 6 4 4 4 4 6 9 6 2 3 1 1 3 1 5 2 1 4 6 4 3 1 3 4 1 3 1 1 2 2 3 5 4 1 1 1 2 3 4 2 9 9 10 10 14 19 21 24 28 29 29 29 32 34
7 6 8 10 11 10 8 8 9 12 13 8 5 5 3 2 1 1 1 3 2 3 4 5 7 6 4 5 5 7 5 3 2 4 5 4 4 5 4 3 6 6 3 3 1 2 3 2 6 4 3 6 7 4 5 8 1 3 4 1 5 4 3 1 2 1 3 2 2 1 1 4 2 6 15 18 16 15 11 8 14 23 27 27 29 33 36 37
8 5 8 11 11 10 10 11 13 15 13 6 6 4 1 0 2 1 3 4 2 3 4 4 5 4 2 3 4 7 6 4 2 3 3 3 4 5 6 4 6 7 4 1 1 1 1 3 5 5 2 8 11 3 6 13 6 1 2 4 7 2 2 2 1 2 4 2 3 1 3 4 5 4 11 18 18 18 18 13 11 16 23 27 31 36 39 41
11 5 7 12 11 9 10 12 14 15 11 5 7 5 1 4 8 6 6 5 3 4 5 4 2 2 1 1 3 6 5 3 3 3 3 2 2 3 4 4 5 10 9 5 2 1 2 1 4 5 3 6 10 5 3 11 13 4 1 4 4 2 1 2 1 1 2 3 3 3 3 4 5 4 9 15 16 17 18 18 16 13 15 24 32 38 41 43
10 5 9 13 12 10 10 12 15 13 8 5 4 4 2 4 10 14 13 8 5 5 4 3 2 2 2 2 2 5 5 5 3 3 3 2 1 3 5 3 3 9 12 10 3 2 2 2 3 5 6 4 5 6 3 7 11 7 3 5 5 2 1 2 1 2 1 3 3 2 3 3 2 4 8 10 12 13 17 18 16 17 17 23 32 36 41 44
8 5 9 13 12 10 10 12 13 8 4 3 2 3 4 2 7 18 22 14 7 6 4 2 3 3 3 3 2 4 5 5 4 4 3 2 2 2 6 5 4 5 8 10 6 1 2 3 2 5 7 4 3 4 4 3 6 7 7 7 7 3 1 1 1 2 1 2 2 1 3 2 3 4 6 8 11 12 15 16 15 21 23 21 32 36 38 43
9 5 8 13 9 9 10 9 7 3 3 2 1 2 4 3 5 14 21 19 12 10 7 4 4 4 3 4 4 4 4 4 5 5 3 3 3 2 6 7 5 5 4 6 6 3 2 2 1 3 5 4 1 4 3 3 4 7 6 6 5 5 4 2 2 3 1 2 0 2 2 4 3 5 7 7 10 11 15 18 17 26 33 22 20 35 39 41
11 5 9 13 6 4 7 6 4 2 2 3 4 5 5 4 4 9 15 17 14 11 11 6 4 5 4 4 4 4 4 4 5 4 4 4 4 2 8 10 6 5 4 2 2 3 1 3 2 2 2 2 4 4 6 8 5 6 7 6 4 4 5 3 1 3 3 3 2 1 2 4 1 7 8 8 11 14 20 23 22 27 35 36 24 13 28 38
9 7 12 16 9 5 7 5 5 4 3 5 7 9 9 7 6 8 10 12 10 8 9 7 5 6 5 4 4 4 4 4 5 4 3 3 4 5 10 11 6 5 4 2 3 4 3 3 3 3 3 3 4 3 6 10 7 5 6 7 5 4 4 1 2 2 1 3 3 3 1 4 2 8 10 13 16 19 23 26 27 29 34 38 39 29 11 17
7 9 16 18 12 7 6 3 3 3 3 6 7 7 10 11 10 9 8 9 9 5 3 5 6 6 4 4 6 6 4 4 4 5 3 1 3 10 17 16 7 4 4 1 1 3 3 2 3 3 3 5 6 5 5 8 8 4 4 7 7 6 7 4 1 1 2 2 4 2 2 5 5 8 10 14 16 16 20 25 26 29 34 37 38 38 33 18
5 6 11 18 18 14 8 2 1 3 2 5 7 5 6 8 12 13 11 11 13 10 5 3 5 5 4 5 8 9 8 6 3 3 4 2 3 9 18 20 13 7 7 5 3 4 3 2 3 5 3 1 1 2 3 5 5 3 5 8 8 8 9 5 3 4 2 2 4 1 3 7 10 9 10 12 13 13 18 24 27 29 34 37 38 37 37 35
5 3 5 11 18 19 14 8 5 4 1 3 5 6 5 3 8 16 15 10 12 13 11 7 5 5 6 6 7 8 10 8 4 3 3 4 2 5 11 18 21 16 11 11 8 4 4 3 3 5 5 4 4 3 4 3 3 4 7 9 8 7 7 3 3 2 1 3 5 3 3 7 14 13 11 11 11 12 14 20 25 27 31 35 37 37 37 37
5 3 3 5 8 12 13 14 12 7 3 3 3 3 6 5 4 10 13 9 9 10 9 10 10 6 4 4 6 5 5 5 5 4 3 4 2 5 9 13 20 21 14 10 9 4 4 3 3 5 3 4 6 5 4 2 2 4 6 8 7 8 7 4 2 2 2 2 5 5 1 7 12 11 9 9 9 10 12 17 20 22 26 32 37 41 42 41
5 2 4 3 1 3 5 8 11 10 7 6 4 2 5 7 5 5 6 6 10 10 6 7 10 8 5 4 5 3 3 4 4 3 2 4 3 5 8 6 11 18 15 9 7 4 4 2 2 4 2 2 3 2 1 1 2 3 4 7 7 7 7 5 3 4 1 1 5 8 7 6 8 8 9 9 10 9 11 16 20 24 28 30 36 43 45 43
7 3 5 5 3 3 3 4 10 13 8 5 5 3 4 6 5 4 3 3 6 9 6 5 5 7 7 6 5 4 3 3 3 2 0 3 3 3 4 3 5 14 13 6 5 4 3 2 2 4 3 1 1 1 2 3 3 4 4 6 7 7 7 5 4 4 3 3 6 7 7 5 5 7 8 10 12 13 15 19 23 28 28 27 32 40 43 42
8 6 5 5 6 8 9 7 8 9 7 5 4 3 4 5 4 4 5 5 3 4 5 6 5 4 6 6 6 4 2 4 4 1 2 2 2 2 2 1 3 8 9 3 4 6 4 1 0 4 3 2 2 1 3 3 2 3 5 6 6 6 5 4 4 4 4 3 5 7 6 4 7 8 8 12 16 17 19 22 23 24 25 26 29 35 38 40
9 8 7 4 4 9 9 7 6 4 4 5 3 2 3 3 2 1 4 7 6 3 2 5 6 4 4 6 6 3 2 4 4 1 2 2 1 2 1 1 3 4 5 2 2 4 3 1 2 5 4 4 3 4 5 3 3 3 3 4 6 5 4 5 5 3 4 4 7 7 5 4 8 10 8 12 17 18 18 19 21 22 23 26 28 32 34 37
8 8 7 4 3 8 7 5 5 4 2 2 1 2 2 2 3 4 4 5 7 7 6 7 7 4 3 5 5 2 1 1 1 3 3 2 3 4 4 4 3 2 1 1 2 1 2 2 1 3 2 4 4 4 5 5 5 3 2 3 4 4 5 6 4 6 7 4 3 4 4 3 8 10 8 9 12 15 16 18 21 21 22 25 27 29 31 33
Wind_Direction
347 344 345 348 349 349 349 348 347 348 346 347 345 344 342 339 337 332 327 323 322 326 326 323 322 323 322 323 328 330 324 315 307 301 283 235 213 199 185 181 178 181 184 182 183 182 173 169 173 177 180 183 198 216 214 222 231 222 206 197 253 240 201 223 194 170 144 147 151 166 176 155 145 162 157 154 141 144 141 126 147 172 160 160 161 157 154 152
347 345 344 346 347 347 349 347 345 345 344 344 344 343 340 338 337 334 330 324 322 324 326 324 324 324 321 323 330 332 335 351 42 46 49 148 200 194 183 179 176 178 188 191 189 184 175 173 173 171 174 178 195 212 213 220 216 209 188 167 229 216 205 227 171 150 144 149 151 166 174 157 154 158 155 154 147 150 133 119 131 134 144 153 155 155 154 157
346 344 344 344 344 345 348 347 344 343 342 342 342 341 339 336 335 334 332 326 321 323 326 325 325 325 322 324 331 339 0 85 87 73 65 63 123 182 184 182 180 174 182 196 193 185 178 175 174 171 172 181 200 206 217 218 201 206 210 219 242 218 238 259 173 165 163 150 147 164 165 147 154 160 160 155 138 157 171 149 140 143 148 151 154 156 157 164
345 343 343 343 342 343 345 345 343 341 340 340 341 340 338 335 333 333 333 327 321 323 326 326 324 324 325 328 335 343 39 111 104 88 67 53 73 146 184 186 188 175 169 190 187 175 172 174 175 173 174 195 215 216 234 229 208 194 200 221 248 190 214 253 195 169 160 155 152 157 152 137 159 165 163 153 136 185 199 170 160 158 156 155 157 159 163 170
344 343 342 341 340 341 342 342 341 339 339 339 339 339 338 333 330 330 332 328 321 322 326 326 322 322 327 333 337 347 87 111 130 100 66 42 54 95 180 190 195 183 172 181 177 166 164 167 173 175 181 209 208 216 238 231 225 221 228 238 257 219 202 256 204 169 158 154 150 151 154 149 159 168 168 165 162 208 193 176 170 166 161 160 160 162 168 171
341 342 341 341 339 339 340 340 339 338 337 337 338 338 337 333 327 326 328 327 321 321 326 326 317 317 329 336 337 343 120 118 138 104 67 44 48 84 166 187 196 190 183 182 177 171 164 160 169 178 186 216 203 217 241 235 225 241 264 251 262 257 246 262 194 171 163 155 156 165 162 151 152 172 178 179 195 212 188 175 173 171 165 162 161 164 170 172
338 340 340 339 337 338 338 338 337 336 335 336 336 335 335 332 326 322 324 325 321 321 323 323 315 315 330 336 336 302 225 128 123 103 75 54 56 75 144 182 191 192 189 186 183 176 169 166 174 181 181 214 216 229 249 254 235 232 266 265 270 260 250 244 199 179 175 168 168 166 157 157 161 171 180 189 207 199 180 173 173 171 165 163 163 168 173 175
336 338 339 339 338 338 337 337 336 334 334 333 334 333 331 329 324 319 321 322 320 323 321 318 314 316 334 336 336 315 219 134 117 100 81 55 55 59 143 180 187 193 191 189 188 180 176 180 181 181 182 222 222 236 255 262 246 235 248 263 272 265 258 239 203 183 183 175 164 158 157 173 173 164 177 195 204 188 174 171 170 167 164 166 167 171 175 176
335 336 338 338 338 337 336 337 334 333 332 331 333 331 329 326 319 315 316 318 318 321 317 312 314 319 340 336 344 0 166 135 124 118 71 31 32 10 293 200 191 191 192 191 190 186 186 188 186 184 181 239 245 265 273 266 242 230 236 258 267 268 268 232 192 182 183 174 160 158 160 175 171 157 174 197 202 186 174 170 167 165 166 170 172 175 177 178
335 335 337 337 336 336 336 336 333 332 329 328 330 328 328 323 315 309 311 315 315 317 312 310 316 321 337 334 358 121 155 130 139 202 281 304 13 353 331 230 200 188 190 191 192 192 192 190 187 190 206 269 258 266 270 248 250 265 265 275 270 272 270 207 181 181 179 176 169 162 146 165 170 167 178 193 188 173 166 165 165 166 169 174 175 178 181 182
337 335 336 336 336 335 335 334 332 329 326 326 326 324 325 321 312 304 305 311 311 312 310 312 318 313 325 308 251 181 158 138 134 219 275 261 194 12 14 259 201 192 189 191 196 196 194 192 188 189 218 264 284 294 283 259 283 297 295 298 282 280 269 189 178 178 169 181 177 151 99 142 166 214 193 176 172 167 164 163 166 169 172 177 178 180 185 185
340 336 335 335 334 334 334 333 331 328 325 324 323 320 322 318 308 300 300 307 307 308 309 314 313 299 316 294 232 164 151 185 208 214 260 262 154 61 20 25 186 193 194 195 200 197 196 199 194 198 227 276 317 313 302 305 312 305 293 301 292 310 279 180 178 174 168 175 166 136 82 152 195 221 180 166 166 165 165 164 168 173 175 178 180 182 185 187
343 339 336 335 333 332 332 332 331 327 325 325 321 318 320 314 302 298 301 305 303 304 312 313 299 290 309 286 191 147 154 197 203 171 148 143 155 177 0 46 118 174 205 205 203 201 201 203 201 215 246 292 307 287 300 306 305 295 278 289 282 337 340 189 179 173 175 166 162 149 104 225 217 218 181 165 165 161 164 167 170 175 177 179 182 182 183 186
346 342 340 336 332 331 331 331 330 327 327 325 319 319 321 307 297 300 306 309 301 300 312 307 292 288 289 238 174 161 163 178 187 154 135 156 181 196 231 191 133 122 189 208 204 204 206 209 214 229 261 278 277 285 304 304 298 289 283 326 285 326 300 213 175 166 167 169 172 166 179 218 214 219 189 169 167 163 166 171 173 176 178 180 183 183 182 185
346 344 342 338 333 331 330 329 328 328 329 325 321 325 323 305 302 306 308 311 307 306 312 300 291 295 294 251 188 178 167 175 182 159 153 176 183 199 230 200 166 132 111 191 191 198 205 208 215 235 267 275 272 280 310 327 331 350 277 314 332 248 270 276 179 173 164 169 185 183 351 224 216 209 186 171 169 167 168 174 176 177 179 182 185 186 183 185
343 342 341 338 334 331 329 326 326 329 331 329 326 330 325 313 313 311 306 309 305 307 302 286 277 292 300 255 184 177 190 203 196 181 191 199 204 212 242 229 204 181 178 153 154 166 185 195 215 239 258 270 255 237 314 348 338 358 102 257 293 281 297 325 200 191 172 147 192 210 188 211 227 195 178 171 170 169 170 176 178 180 181 183 186 188 185 184
338 338 337 336 334 332 329 324 324 328 334 339 334 331 324 320 321 313 305 304 301 299 290 276 270 288 273 180 154 128 96 244 215 190 188 193 212 206 216 237 227 194 174 152 151 161 179 193 217 245 250 251 185 151 337 298 294 324 5 272 264 270 289 306 281 210 182 148 185 216 222 237 238 182 172 173 174 171 173 177 180 182 183 185 187 189 188 186
334 335 335 333 332 332 329 323 322 324 336 349 344 339 322 319 331 331 45 356 323 304 286 266 242 297 232 187 154 36 12 325 212 205 201 187 192 200 199 211 219 192 174 167 173 180 189 198 202 246 273 249 176 127 159 227 209 202 292 340 296 300 285 258 303 227 189 176 187 204 222 241 238 178 175 177 175 175 178 179 181 183 184 186 188 189 189 190
331 331 331 330 330 331 328 323 321 320 334 355 351 349 337 335 343 262 345 337 313 265 263 246 205 210 247 241 288 341 339 315 228 230 221 187 169 191 189 180 196 179 164 153 181 185 182 191 193 212 252 233 204 161 175 213 189 175 227 234 253 291 287 249 259 241 178 188 212 204 216 221 193 185 184 179 177 178 182 181 182 184 185 188 189 191 190 192
329 328 328 328 328 330 327 323 322 316 328 355 356 4 21 7 359 306 331 327 303 267 270 262 252 263 272 273 292 335 339 326 236 217 191 203 181 174 169 164 167 154 152 147 170 186 170 175 229 217 219 218 226 192 184 224 247 263 282 267 257 264 280 272 259 254 178 181 238 217 218 219 189 187 189 181 178 179 181 182 185 186 187 189 191 193 192 194
329 326 326 326 326 330 326 322 322 310 323 1 11 30 40 17 6 331 336 326 309 300 276 264 261 262 268 268 278 330 333 323 286 221 185 205 177 164 169 157 126 120 202 168 137 146 161 192 234 222 218 216 231 215 194 233 262 273 270 283 285 249 266 280 258 257 220 189 248 227 221 229 199 186 187 182 179 182 183 184 187 189 190 192 193 194 195 195
331 327 326 326 327 330 324 321 321 302 316 15 37 57 57 31 12 338 336 315 301 305 282 266 257 250 258 261 279 312 301 289 288 257 189 176 169 173 173 142 129 166 236 146 98 73 182 231 245 231 225 217 244 247 221 236 249 263 267 280 286 266 288 291 273 273 235 172 256 233 213 231 212 187 185 185 186 187 188 188 189 190 190 192 194 195 195 194
334 328 326 328 331 328 322 322 315 292 308 32 54 65 57 23 13 346 331 303 293 300 285 262 243 238 249 259 279 278 253 242 250 242 195 184 182 177 155 136 145 168 141 124 132 142 206 246 241 236 232 218 253 263 247 259 261 250 251 259 268 268 27 291 293 306 294 227 252 243 222 236 206 187 193 193 191 189 190 192 191 190 191 194 195 195 193 193
337 330 326 331 334 327 324 324 308 280 291 70 60 59 45 2 5 349 333 305 281 305 299 234 221 233 245 256 260 227 217 222 229 204 192 194 177 157 156 144 129 144 202 168 152 165 221 240 235 225 214 207 245 275 267 254 268 251 233 230 251 259 210 230 270 304 313 285 240 224 273 293 179 184 204 198 196 194 191 192 192 194 196 196 196 196 196 195
338 330 326 334 336 329 328 323 293 261 249 169 100 40 5 332 334 338 341 344 278 304 347 171 200 220 230 236 208 195 192 226 238 200 192 191 167 146 152 147 138 191 232 179 148 176 241 243 225 195 213 202 216 259 247 208 245 275 240 221 233 249 240 243 273 320 343 315 254 131 70 300 213 191 199 189 196 201 192 192 192 194 198 198 197 197 198 199
337 329 328 336 336 331 333 323 293 253 215 187 175 338 317 299 304 321 342 42 324 297 20 151 190 201 214 208 192 180 138 259 220 187 191 190 174 152 140 154 148 200 211 174 151 190 248 246 196 181 219 204 205 242 233 185 201 274 244 210 218 228 239 254 270 298 261 266 274 86 119 265 262 206 202 190 196 198 192 197 197 195 197 199 199 198 198 198
336 329 332 339 335 332 337 329 322 252 180 188 250 303 310 299 301 313 340 46 350 290 225 177 175 180 184 170 173 162 115 225 155 167 186 184 178 165 165 217 170 183 199 112 108 216 249 300 203 180 207 205 207 240 228 179 174 254 241 198 200 203 219 242 236 217 225 252 297 346 126 172 248 212 198 191 199 202 197 202 202 200 200 201 202 200 199 199
338 333 338 344 335 332 337 322 295 144 122 355 289 291 304 312 314 321 70 76 294 260 196 218 180 181 178 155 171 162 127 181 130 160 187 173 155 152 156 214 181 185 209 107 144 252 220 124 176 153 162 203 208 231 228 176 180 250 246 218 205 190 205 228 220 227 244 274 298 305 138 155 276 230 182 181 196 205 208 206 205 205 204 204 203 202 201 200
345 342 349 357 347 344 349 329 254 77 333 324 315 294 283 294 324 14 94 86 287 295 206 225 221 194 194 153 186 176 110 173 146 156 171 143 102 121 163 219 167 162 225 119 175 251 243 204 204 152 159 205 214 236 226 174 201 246 252 237 234 205 210 226 226 232 99 107 256 266 199 171 281 263 168 176 198 208 210 208 207 207 206 206 205 204 204 202
355 359 12 21 15 10 12 353 341 344 317 325 343 324 295 290 347 69 75 53 125 326 323 265 270 208 162 81 31 238 120 211 232 110 81 67 49 35 50 159 91 109 9 30 173 249 285 268 237 160 133 227 231 244 221 200 225 243 271 272 264 280 201 194 326 176 136 232 250 249 214 162 263 276 182 182 202 208 209 207 207 205 205 208 207 206 205 204
12 28 33 32 27 20 12 350 320 318 323 338 337 327 323 321 59 91 83 355 40 342 336 292 272 237 159 128 94 311 105 296 308 75 58 48 43 34 35 29 24 47 16 3 334 302 337 351 270 18 33 20 305 293 287 269 257 244 255 215 262 319 45 68 2 72 169 251 258 249 220 140 198 263 220 205 210 206 205 205 202 200 203 206 206 206 206 205
37 39 29 21 18 14 10 358 330 323 322 329 324 316 353 60 33 77 277 328 359 330 315 284 272 264 204 108 84 4 92 25 22 73 73 47 48 40 46 38 357 46 17 333 320 348 4 21 323 358 37 31 16 348 343 335 10 35 67 127 133 305 331 167 297 211 197 248 249 232 205 135 222 250 225 216 221 214 208 208 203 201 205 205 205 206 206 205
41 22 10 3 0 359 6 8 347 337 316 320 315 310 93 86 38 0 327 337 337 252 288 291 303 298 107 78 63 57 61 34 26 65 67 66 61 43 43 25 17 100 106 344 24 11 341 328 353 4 15 12 24 57 0 322 352 3 155 130 146 180 142 229 252 252 226 255 257 230 192 225 266 276 229 213 224 220 213 213 208 205 207 207 207 207 207 206
18 8 2 356 355 348 348 7 6 4 345 334 329 86 72 76 9 356 4 314 257 282 310 303 319 354 51 56 39 96 63 29 29 50 36 52 53 14 10 12 9 34 100 56 54 44 84 326 354 12 332 341 16 60 244 235 282 297 207 148 149 165 154 207 212 198 224 251 290 265 179 172 195 271 257 237 245 233 219 215 210 208 211 209 209 210 209 209
359 1 5 0 5 6 8 22 18 11 355 347 34 83 69 79 277 333 347 292 290 324 328 348 24 34 24 3 348 17 67 48 44 58 46 51 62 5 352 360 357 5 65 61 32 27 73 229 274 297 310 359 7 329 302 208 228 282 263 110 63 200 182 225 185 175 185 142 348 242 203 214 195 359 350 334 315 288 240 219 204 205 210 207 207 209 210 211
351 354 10 9 14 23 30 24 13 7 1 9 69 67 73 140 230 233 294 303 303 318 335 8 34 41 10 353 351 341 11 69 91 74 51 55 67 18 355 347 349 0 49 94 65 7 48 269 282 329 359 0 349 314 34 49 238 268 29 3 272 248 187 217 240 200 91 98 272 230 231 296 311 31 9 2 356 349 327 262 217 210 206 200 202 206 208 209
353 343 9 13 11 14 16 12 5 2 1 31 80 67 195 115 25 291 311 322 312 341 40 47 26 34 8 357 0 334 351 46 62 63 44 25 38 5 339 339 4 8 3 93 121 84 97 261 308 7 336 337 351 357 72 40 16 65 49 306 290 277 136 134 212 9 56 126 269 305 102 7 12 24 359 3 360 349 344 332 289 238 210 198 202 206 207 209
9 0 15 15 5 352 351 356 354 353 359 45 76 65 89 25 20 4 337 345 9 22 61 75 36 47 48 34 355 337 359 32 12 50 62 33 37 10 338 330 6 10 2 24 86 45 55 280 304 2 326 320 2 22 52 10 7 31 205 311 349 80 64 359 104 125 109 149 275 314 79 53 23 349 352 4 357 341 340 337 325 294 236 208 205 207 208 209
18 40 33 13 0 347 339 340 342 347 8 55 69 51 57 28 19 23 26 31 39 43 60 63 54 49 34 67 356 346 31 47 22 64 68 47 48 359 357 331 333 8 20 44 74 270 29 54 277 332 338 324 10 30 18 339 348 10 30 7 16 110 165 318 118 144 158 156 213 291 34 39 321 340 356 3 358 351 345 336 328 318 281 231 214 210 208 208
21 58 31 1 348 345 333 326 334 350 41 76 102 63 50 21 8 27 41 49 43 44 53 18 39 54 18 29 26 10 43 45 36 67 54 41 83 356 4 2 320 346 34 55 57 349 33 57 277 310 339 7 37 17 6 332 348 15 34 25 5 343 345 326 4 40 87 125 184 124 66 259 260 351 356 5 14 8 353 340 332 333 319 261 226 218 210 208
41 53 12 354 339 342 341 332 338 17 68 40 83 71 54 54 12 22 39 53 54 44 51 55 48 55 34 29 28 13 44 47 33 60 60 35 72 40 358 0 344 338 20 45 34 15 29 64 45 331 350 31 6 318 358 57 67 58 50 33 7 353 18 45 2 346 36 71 323 119 119 238 261 13 352 6 28 17 5 357 348 349 350 331 254 229 219 213
56 47 14 13 10 7 12 2 355 34 57 36 48 48 47 55 32 18 30 46 50 34 37 52 45 41 37 35 36 21 50 56 22 47 80 42 61 47 341 349 5 19 44 57 342 332 49 84 62 0 327 286 263 293 45 65 80 77 58 33 9 17 36 61 349 313 340 7 319 93 125 224 247 21 0 8 22 16 16 13 6 359 359 2 356 279 233 223
48 35 37 40 44 60 65 38 357 10 38 50 57 51 53 47 21 23 28 34 42 32 33 38 30 42 36 18 43 40 46 60 31 39 82 43 34 15 0 6 15 22 46 70 322 337 19 58 33 341 318 326 298 302 44 53 50 48 35 16 10 17 12 348 217 239 347 16 6 20 351 242 329 13 6 13 16 13 16 17 16 11 4 4 12 15 349 240
36 34 42 44 41 48 75 73 15 29 25 44 57 49 55 53 30 31 38 31 32 33 46 34 23 41 36 21 54 46 33 71 50 27 50 59 6 10 20 30 36 44 57 59 301 4 15 43 55 39 6 359 353 337 358 28 31 19 356 0 0 355 357 355 335 34 46 45 41 35 266 269 322 357 6 15 17 14 12 15 19 20 14 7 8 18 27 29
33 35 33 41 49 57 65 84 116 93 43 46 57 32 37 50 37 41 54 53 47 48 59 27 11 43 43 39 58 45 38 64 65 15 20 16 353 2 19 32 39 58 69 47 45 73 61 60 86 92 106 145 13 351 325 338 352 343 345 354 353 351 358 8 29 31 26 348 12 109 227 292 318 344 7 12 17 14 7 12 18 19 20 16 11 15 24 32
45 40 1 27 48 54 54 49 63 83 60 58 64 31 26 38 27 37 48 54 52 55 57 32 12 43 34 37 65 50 41 52 57 59 27 355 339 337 8 33 35 33 44 41 34 67 87 55 88 121 133 168 180 207 264 299 324 325 338 346 347 346 350 24 56 34 261 329 337 216 195 325 322 336 2 5 15 19 7 11 15 14 19 22 17 15 20 27
61 42 336 359 29 37 41 42 46 51 38 66 87 23 33 45 11 30 43 46 42 51 58 35 27 44 28 36 77 50 30 51 50 54 21 343 324 333 1 42 40 26 29 33 25 56 98 60 85 117 138 185 179 209 257 287 313 311 328 334 335 337 344 23 39 276 225 12 317 264 328 343 312 323 355 359 11 21 11 12 13 10 16 22 22 20 19 23
68 54 33 37 3 356 19 35 50 54 41 47 66 26 43 54 44 32 39 45 39 37 52 40 32 45 42 48 92 57 11 48 42 28 2 346 335 342 358 36 42 26 23 24 24 66 110 103 129 123 136 212 185 213 282 4 319 312 327 322 324 332 336 347 320 284 261 161 259 281 314 315 301 333 1 355 4 24 19 15 18 18 16 17 23 25 20 18
59 57 42 49 65 35 27 48 63 60 39 26 44 33 44 58 51 29 11 28 35 26 46 70 40 44 47 46 84 80 37 69 48 353 1 12 344 336 352 341 12 19 21 21 19 44 94 111 141 123 117 252 271 304 30 40 3 340 326 305 311 317 311 314 317 321 330 243 246 288 305 301 338 4 9 2 11 34 36 26 25 24 17 12 19 25 22 18
52 40 16 35 49 28 26 40 60 61 37 25 43 25 31 53 44 27 29 47 68 6 29 81 88 71 65 56 71 84 97 132 129 229 189 107 347 321 5 290 309 2 12 22 2 12 46 61 19 90 80 310 300 355 25 46 29 321 295 287 309 322 319 328 328 334 348 310 297 319 328 346 358 358 17 26 27 35 36 29 27 24 18 15 18 22 21 18
53 43 18 31 38 11 16 32 46 70 41 19 36 13 11 30 21 45 46 46 74 90 66 109 110 84 65 57 64 91 146 144 149 225 214 164 204 218 203 273 293 342 1 17 352 5 46 20 354 63 50 304 311 359 353 13 34 348 325 337 343 343 339 332 328 6 28 334 314 339 13 6 340 344 13 31 32 36 32 24 25 25 21 21 21 19 18 17
60 54 42 75 60 9 12 24 28 60 58 354 40 59 33 19 22 63 74 27 48 85 95 104 101 83 56 39 32 34 12 355 301 310 297 255 254 235 235 263 256 225 238 25 351 316 113 94 50 78 62 291 299 343 353 15 25 0 349 349 329 339 357 349 355 25 23 354 328 5 30 352 338 353 17 27 29 35 35 29 25 24 24 25 24 22 19 16